Home > Time Zones > World Clock > Weather > China > Sian > Past weeks

Flag for China Weather past 2 weeks in Sian, Shaanxi, China

Now
77 °F

Clear.


Feels Like: 79 °F
Forecast: 66 / 75 °F
Wind: 6 mph from Northeast

Location: Xian/Xianyang

Current Time: Aug 30, 2014 at 12:53:56 AM

Latest Report: Aug 30, 2014 at 12:00 AM


Visibility: 10 mi

Pressure: 29.89 "Hg

Humidity: 65%

Dew point: 64 °F

Location of SianLocation

Historic Weather in Sian — Graph

°F

Sian temperature yesterday

Maximum temperature yesterday: 86 °F (at 1:00 PM)
Minimum temperature yesterday: 68 °F (at 5:00 AM)
Average temperature yesterday: 78 °F

Past Weeks' High & Low Weather Summary

 TemperatureHumidityPressure
High90 °F (Aug 19, 5:00 PM)94% (Aug 15, 5:00 AM)30.01 "Hg (Aug 15, 5:00 AM)
Low57 °F (Aug 25, 6:00 AM)22% (Aug 25, 5:00 PM)29.74 "Hg (Aug 15, 7:00 PM)
Average75 °F68%29.88 "Hg
* Reported Midnight between Aug 14 and Aug 15 — Midnight between Aug 29 and Aug 30, Sian, Weather by CustomWeather, © 2014

Note: Actual official high and low records may vary slightly from our data, if they occured in-between our weather recording intervals... More about our weather records

Advertising

Sian weather history for previous 24 hours

 ConditionsComfort  
Time TempWeatherWind HumidityBarometerVisibility
12:00 AM
Aug 30
77 °FClear.6 mph65%29.89 "Hg10 mi
11:00 PM
Aug 29
79 °FClear.8 mph61%29.89 "Hg10 mi
10:00 PM79 °FClear.6 mph61%29.89 "Hg10 mi
9:00 PM81 °FClear.8 mph62%29.89 "Hg10 mi
8:00 PM82 °FSunny.10 mph51%29.86 "Hg10 mi
7:00 PM82 °FSunny.10 mph55%29.83 "Hg10 mi
6:00 PM82 °FPartly sunny.13 mph55%29.83 "HgN/A
5:00 PM84 °FPartly sunny.8 mph51%29.86 "HgN/A
4:00 PM86 °FPassing clouds.8 mph49%29.86 "HgN/A
3:00 PM86 °FSunny.6 mph49%29.86 "Hg10 mi
2:00 PM86 °FSunny.6 mph49%29.89 "Hg10 mi
1:00 PM86 °FClear.10 mph49%29.89 "Hg5 mi
12:00 PM84 °FClear.8 mph51%29.92 "Hg4 mi
11:00 AM81 °FHaze.10 mph54%29.95 "Hg3 mi
10:00 AM79 °FHaze.10 mph61%29.98 "Hg3 mi
9:00 AM75 °FHaze.13 mph65%29.98 "Hg3 mi
8:00 AM72 °FFog.13 mph73%29.98 "Hg2 mi
7:00 AM70 °FFog.10 mph78%29.95 "Hg2 mi
6:00 AM68 °FFog.8 mph78%29.95 "Hg2 mi
5:00 AM68 °FClear.8 mph78%29.95 "Hg4 mi
4:00 AM70 °FClear.8 mph78%29.95 "Hg4 mi
3:00 AM70 °FClear.8 mph78%29.95 "Hg10 mi
2:00 AM70 °FClear.6 mph78%29.92 "Hg10 mi
1:00 AM72 °FClear.8 mph73%29.95 "Hg10 mi
12:00 AM73 °FClear.8 mph69%29.92 "Hg10 mi
Weather by CustomWeather, © 2014

See weather overviewHow to use our weather pages